| time (UTC) | temp F | wind direction | speed MPH | gust MPH | rain 1hr in | rain 24hr in | rain mn in | humidity % | barometer mb |
| 20260904183046 | 75 | 263 | 3.0 | 7.0 | 0.00 | 0.00 | 0.00 | 71 | 1012.5 |
| 20260904181546 | 73 | 282 | 3.0 | 7.0 | 0.00 | 0.00 | 0.00 | 70 | 1012.7 |
| 20260904180046 | 74 | 236 | 2.0 | 5.0 | 0.00 | 0.00 | 0.00 | 72 | 1012.7 |
| 20260904174611 | 73 | 313 | 2.0 | 5.0 | 0.00 | 0.00 | 0.00 | 73 | 1012.7 |
| 20260904173047 | 73 | 276 | 3.0 | 7.0 | 0.00 | 0.00 | 0.00 | 72 | 1012.8 |
| 20260904171544 | 73 | 276 | 4.0 | 10.0 | 0.00 | 0.00 | 0.00 | 74 | 1012.7 |
| 20260904170048 | 74 | 267 | 5.0 | 9.0 | 0.00 | 0.00 | 0.00 | 71 | 1012.8 |
| 20260904164541 | 74 | 288 | 3.0 | 7.0 | 0.00 | 0.00 | 0.00 | 72 | 1012.9 |
| 20260904163050 | 73 | 235 | 4.0 | 8.0 | 0.00 | 0.00 | 0.00 | 74 | 1012.9 |
| 20260904161537 | 73 | 264 | 4.0 | 8.0 | 0.00 | 0.00 | 0.00 | 75 | 1013.0 |
| 20260904160035 | 73 | 255 | 2.0 | 8.0 | 0.00 | 0.00 | 0.00 | 75 | 1013.2 |
| 20260904154534 | 72 | 231 | 3.0 | 5.0 | 0.00 | 0.00 | 0.00 | 75 | 1013.2 |
| 20260904153033 | 71 | 348 | 2.0 | 5.0 | 0.00 | 0.00 | 0.00 | 77 | 1013.0 |
| 20260904151530 | 71 | 70 | 2.0 | 5.0 | 0.00 | 0.00 | 0.00 | 80 | 1013.0 |
| 20260904150034 | 70 | 313 | 3.0 | 5.0 | 0.00 | 0.00 | 0.00 | 80 | 1013.1 |
| 20260904144527 | 70 | 328 | 3.0 | 6.0 | 0.00 | 0.00 | 0.00 | 81 | 1013.3 |
| 20260904143026 | 70 | 195 | 0.0 | 4.0 | 0.00 | 0.00 | 0.00 | 82 | 1013.4 |
| 20260904141525 | 69 | 335 | 2.0 | 5.0 | 0.00 | 0.00 | 0.00 | 82 | 1013.5 |
| 20260904140023 | 69 | 331 | 3.0 | 8.0 | 0.00 | 0.00 | 0.00 | 83 | 1013.6 |
| 20260904134521 | 68 | 354 | 1.0 | 5.0 | 0.00 | 0.00 | 0.00 | 82 | 1013.5 |
| 20260904133019 | 68 | 295 | 1.0 | 4.0 | 0.00 | 0.00 | 0.00 | 82 | 1013.3 |
| 20260904131516 | 67 | 349 | 2.0 | 4.0 | 0.00 | 0.00 | 0.00 | 84 | 1013.4 |
| 20260904130017 | 67 | 306 | 2.0 | 4.0 | 0.00 | 0.00 | 0.00 | 84 | 1013.2 |
| 20260904124522 | 67 | 298 | 1.0 | 6.0 | 0.00 | 0.00 | 0.00 | 88 | 1013.3 |
| 20260904123012 | 66 | 295 | 2.0 | 5.0 | 0.00 | 0.00 | 0.00 | 88 | 1013.4 |
| 20260904121512 | 66 | 288 | 2.0 | 6.0 | 0.00 | 0.00 | 0.00 | 88 | 1013.3 |
| 20260904120011 | 65 | 304 | 2.0 | 5.0 | 0.00 | 0.00 | 0.00 | 90 | 1013.3 |
| 20260904114509 | 64 | 289 | 0.0 | 3.0 | 0.00 | 0.00 | 0.00 | 93 | 1013.2 |
| 20260904113008 | 62 | 248 | 1.0 | 2.0 | 0.00 | 0.00 | 0.00 | 96 | 1013.2 |
| 20260904111507 | 61 | 242 | 0.0 | 1.0 | 0.00 | 0.00 | 0.00 | 96 | 1013.2 |
| 20260904110006 | 61 | 200 | 0.0 | 0.0 | 0.00 | 0.00 | 0.00 | 98 | 1013.1 |
| 20260904104502 | 60 | 200 | 0.0 | 0.0 | 0.00 | 0.00 | 0.00 | 97 | 1012.9 |
| 20260904103001 | 60 | 197 | 0.0 | 0.0 | 0.00 | 0.00 | 0.00 | 97 | 1012.8 |
| 20260904101558 | 60 | 197 | 0.0 | 2.0 | 0.00 | 0.00 | 0.00 | 95 | 1012.5 |
| 20260904100057 | 62 | 231 | 0.0 | 1.0 | 0.00 | 0.00 | 0.00 | 95 | 1012.4 |
| 20260904094559 | 64 | 298 | 0.0 | 2.0 | 0.00 | 0.00 | 0.00 | 94 | 1012.3 |
| 20260904093103 | 63 | 312 | 1.0 | 3.0 | 0.00 | 0.00 | 0.00 | 99 | 1012.2 |
| 20260904091553 | 62 | 231 | 0.0 | 0.0 | 0.00 | 0.00 | 0.00 | 99 | 1012.2 |
| 20260904090051 | 61 | 158 | 0.0 | 0.0 | 0.00 | 0.00 | 0.00 | 98 | 1011.9 |
| 20260904084553 | 61 | 162 | 0.0 | 0.0 | 0.00 | 0.00 | 0.00 | 98 | 1011.9 |
| 20260904083050 | 61 | 162 | 0.0 | 0.0 | 0.00 | 0.00 | 0.00 | 98 | 1011.8 |
| 20260904081549 | 62 | 162 | 0.0 | 0.0 | 0.00 | 0.00 | 0.00 | 99 | 1011.7 |
| 20260904080048 | 61 | 156 | 0.0 | 0.0 | 0.00 | 0.00 | 0.00 | 98 | 1011.6 |
| 20260904074548 | 61 | 148 | 0.0 | 0.0 | 0.00 | 0.00 | 0.00 | 98 | 1011.5 |
| 20260904073054 | 61 | 148 | 0.0 | 0.0 | 0.00 | 0.00 | 0.00 | 98 | 1011.7 |
| 20260904071544 | 61 | 199 | 0.0 | 0.0 | 0.00 | 0.00 | 0.00 | 98 | 1011.7 |
| 20260904070045 | 62 | 199 | 0.0 | 0.0 | 0.00 | 0.00 | 0.00 | 98 | 1011.8 |
| 20260904064542 | 62 | 199 | 0.0 | 0.0 | 0.00 | 0.00 | 0.00 | 98 | 1011.8 |
| 20260904063045 | 62 | 231 | 0.0 | 0.0 | 0.00 | 0.00 | 0.00 | 97 | 1011.9 |
| 20260904061540 | 62 | 202 | 0.0 | 0.0 | 0.00 | 0.00 | 0.00 | 98 | 1011.9 |
| 20260904060040 | 62 | 151 | 0.0 | 0.0 | 0.00 | 0.00 | 0.00 | 96 | 1012.0 |
| 20260904054537 | 63 | 269 | 0.0 | 0.0 | 0.00 | 0.00 | 0.00 | 96 | 1011.9 |
| 20260904053034 | 64 | 269 | 0.0 | 0.0 | 0.00 | 0.00 | 0.00 | 95 | 1011.9 |
| 20260904051533 | 65 | 319 | 0.0 | 0.0 | 0.00 | 0.00 | 0.00 | 93 | 1011.8 |
| 20260904050032 | 67 | 319 | 0.0 | 0.0 | 0.00 | 0.00 | 0.00 | 93 | 1011.8 |
| 20260904044531 | 66 | 311 | 0.0 | 0.0 | 0.00 | 0.00 | 0.00 | 94 | 1011.8 |
| 20260904043029 | 65 | 289 | 0.0 | 0.0 | 0.00 | 0.00 | 0.00 | 93 | 1011.7 |
| 20260904041527 | 66 | 289 | 0.0 | 0.0 | 0.00 | 0.00 | 0.00 | 92 | 1011.7 |
| 20260904040023 | 67 | 288 | 0.0 | 0.0 | 0.00 | 0.00 | 0.00 | 89 | 1011.8 |
| 20260904034525 | 69 | 288 | 0.0 | 0.0 | 0.00 | 0.00 | 0.00 | 87 | 1011.8 |
| 20260904033030 | 69 | 277 | 0.0 | 0.0 | 0.00 | 0.00 | 0.00 | 87 | 1011.8 |
| 20260904031519 | 69 | 282 | 0.0 | 0.0 | 0.00 | 0.00 | 0.00 | 87 | 1011.8 |
| 20260904030019 | 68 | 276 | 0.0 | 0.0 | 0.00 | 0.00 | 0.00 | 88 | 1011.7 |
| 20260904024519 | 69 | 262 | 0.0 | 0.0 | 0.00 | 0.01 | 0.00 | 88 | 1011.7 |
| 20260904023018 | 69 | 277 | 0.0 | 0.0 | 0.00 | 0.01 | 0.00 | 88 | 1011.5 |
| 20260904021517 | 69 | 274 | 0.0 | 2.0 | 0.00 | 0.01 | 0.00 | 89 | 1011.6 |
| 20260904020016 | 68 | 225 | 0.0 | 0.0 | 0.00 | 0.01 | 0.00 | 89 | 1011.5 |
| 20260904014514 | 69 | 223 | 0.0 | 0.0 | 0.00 | 0.24 | 0.00 | 89 | 1011.6 |
| 20260904013017 | 69 | 243 | 0.0 | 1.0 | 0.00 | 0.24 | 0.00 | 89 | 1011.6 |
| 20260904011515 | 69 | 227 | 0.0 | 2.0 | 0.00 | 0.24 | 0.00 | 89 | 1011.7 |
| 20260904010012 | 69 | 218 | 0.0 | 2.0 | 0.00 | 0.24 | 0.00 | 89 | 1011.5 |
| 20260904004511 | 69 | 204 | 0.0 | 1.0 | 0.00 | 0.25 | 0.00 | 88 | 1011.5 |
| 20260904003011 | 70 | 235 | 0.0 | 2.0 | 0.00 | 0.25 | 0.00 | 87 | 1011.5 |
| 20260904001510 | 70 | 210 | 0.0 | 3.0 | 0.00 | 0.25 | 0.00 | 86 | 1011.1 |
| 20260904000009 | 71 | 223 | 0.0 | 2.0 | 0.00 | 0.25 | 0.00 | 85 | 1011.0 |
| 20260903234508 | 72 | 229 | 1.0 | 4.0 | 0.00 | 0.26 | 0.00 | 84 | 1010.9 |
| 20260903233007 | 72 | 14 | 0.0 | 4.0 | 0.00 | 0.26 | 0.00 | 84 | 1010.8 |
| 20260903231507 | 72 | 243 | 0.0 | 4.0 | 0.00 | 0.26 | 0.00 | 83 | 1010.6 |
| 20260903230006 | 73 | 210 | 1.0 | 2.0 | 0.00 | 0.26 | 0.00 | 82 | 1010.6 |
| 20260903224505 | 74 | 227 | 1.0 | 4.0 | 0.00 | 0.26 | 0.00 | 81 | 1010.5 |
| 20260903223004 | 75 | 180 | 0.0 | 3.0 | 0.00 | 0.26 | 0.00 | 81 | 1010.9 |
| 20260903221502 | 75 | 220 | 1.0 | 5.0 | 0.00 | 0.26 | 0.00 | 80 | 1010.8 |
| 20260903220002 | 75 | 226 | 0.0 | 2.0 | 0.00 | 0.26 | 0.00 | 80 | 1010.9 |
| 20260903214504 | 75 | 232 | 4.0 | 10.0 | 0.00 | 0.26 | 0.00 | 77 | 1010.8 |
| 20260903213101 | 76 | 211 | 4.0 | 8.0 | 0.00 | 0.26 | 0.00 | 77 | 1011.0 |
| 20260903211600 | 77 | 259 | 6.0 | 12.0 | 0.00 | 0.26 | 0.00 | 76 | 1010.8 |
| 20260903210103 | 76 | 234 | 4.0 | 8.0 | 0.00 | 0.26 | 0.00 | 77 | 1010.9 |
| 20260903204601 | 77 | 246 | 6.0 | 13.0 | 0.00 | 0.26 | 0.00 | 76 | 1011.1 |
| 20260903203058 | 77 | 225 | 8.0 | 14.0 | 0.00 | 0.26 | 0.00 | 75 | 1011.3 |
| 20260903201558 | 77 | 221 | 3.0 | 11.0 | 0.00 | 0.26 | 0.00 | 77 | 1011.2 |
| 20260903200057 | 76 | 242 | 9.0 | 19.0 | 0.00 | 0.26 | 0.00 | 76 | 1011.4 |
| 20260903194604 | 77 | 268 | 6.0 | 14.0 | 0.00 | 0.26 | 0.00 | 76 | 1011.5 |
| 20260903193104 | 77 | 237 | 10.0 | 16.0 | 0.00 | 0.26 | 0.00 | 76 | 1011.6 |
| 20260903191603 | 77 | 240 | 7.0 | 14.0 | 0.00 | 0.26 | 0.00 | 76 | 1011.6 |
| 20260903190055 | 77 | 244 | 10.0 | 17.0 | 0.00 | 0.26 | 0.00 | 74 | 1011.7 |
| 20260903184554 | 78 | 250 | 6.0 | 12.0 | 0.00 | 0.26 | 0.00 | 74 | 1011.6 |